Time,TemperatureF,DewpointF,PressureIn,WindDirection,WindDirectionDegrees,WindSpeedMPH,WindSpeedGustMPH,Humidity,HourlyPrecipIn,Conditions,Clouds,dailyrainin,SoftwareType,DateUTC
2014-02-16 00:07:00,74.3,71.6,30.12,East,90,1.3,4.0,90,0.00,,,0.00,Graphweather,2014-02-16 04:07:00,
2014-02-16 00:13:00,74.3,71.6,30.12,ESE,112,1.3,4.0,91,0.00,,,0.00,Graphweather,2014-02-16 04:13:00,
2014-02-16 00:18:00,74.3,71.6,30.12,East,90,2.0,2.9,92,0.00,,,0.00,Graphweather,2014-02-16 04:18:00,
2014-02-16 00:23:00,74.3,73.4,30.12,SW,225,1.3,4.0,93,0.00,,,0.00,Graphweather,2014-02-16 04:23:00,
2014-02-16 00:33:00,74.3,71.6,30.12,East,90,3.1,4.9,92,0.00,,,0.00,Graphweather,2014-02-16 04:33:00,
2014-02-16 00:38:00,74.5,71.6,30.12,ENE,67,2.9,5.4,92,0.00,,,0.00,Graphweather,2014-02-16 04:38:00,
2014-02-16 00:43:00,74.7,73.4,30.12,South,180,2.0,6.0,93,0.00,,,0.00,Graphweather,2014-02-16 04:43:00,
2014-02-16 00:53:00,74.1,71.6,30.12,ESE,112,2.5,3.6,94,0.00,,,0.00,Graphweather,2014-02-16 04:53:00,
2014-02-16 00:58:00,74.1,73.4,30.12,ENE,67,2.9,4.3,95,0.00,,,0.00,Graphweather,2014-02-16 04:58:00,
2014-02-16 01:03:00,74.1,73.4,30.09,East,90,2.0,4.3,95,0.00,,,0.00,Graphweather,2014-02-16 05:03:00,
2014-02-16 01:07:00,74.1,73.4,30.09,SE,135,1.6,6.0,95,0.00,,,0.00,Graphweather,2014-02-16 05:07:00,
2014-02-16 01:13:00,74.1,73.4,30.09,ESE,112,2.7,5.6,95,0.00,,,0.00,Graphweather,2014-02-16 05:13:00,
2014-02-16 01:18:00,74.1,73.4,30.09,SE,135,2.2,7.4,95,0.00,,,0.00,Graphweather,2014-02-16 05:18:00,
2014-02-16 01:23:00,74.1,73.4,30.09,East,90,2.0,6.0,95,0.00,,,0.00,Graphweather,2014-02-16 05:23:00,
2014-02-16 01:27:00,74.1,71.6,30.09,NE,45,3.1,4.0,94,0.00,,,0.00,Graphweather,2014-02-16 05:27:00,
2014-02-16 01:33:00,74.3,73.4,30.09,ESE,112,4.5,8.5,94,0.00,,,0.00,Graphweather,2014-02-16 05:33:00,
2014-02-16 01:38:00,74.1,71.6,30.09,East,90,3.1,5.8,93,0.00,,,0.00,Graphweather,2014-02-16 05:38:00,
2014-02-16 01:43:00,74.3,73.4,30.09,East,90,3.1,7.4,93,0.00,,,0.00,Graphweather,2014-02-16 05:43:00,
2014-02-16 01:53:00,74.5,73.4,30.09,SE,135,1.3,5.4,94,0.00,,,0.00,Graphweather,2014-02-16 05:53:00,
2014-02-16 01:58:00,74.7,73.4,30.09,ESE,112,2.9,6.5,93,0.00,,,0.00,Graphweather,2014-02-16 05:58:00,
2014-02-16 02:03:00,74.7,71.6,30.09,SE,135,3.4,4.9,92,0.00,,,0.00,Graphweather,2014-02-16 06:03:00,
2014-02-16 02:13:00,74.8,71.6,30.09,ENE,67,2.9,6.5,91,0.00,,,0.00,Graphweather,2014-02-16 06:13:00,
2014-02-16 02:18:00,74.8,71.6,30.06,NNE,22,3.1,7.4,91,0.00,,,0.00,Graphweather,2014-02-16 06:18:00,
2014-02-16 02:23:00,74.7,71.6,30.06,SSE,157,4.0,7.6,90,0.00,,,0.00,Graphweather,2014-02-16 06:23:00,
2014-02-16 02:33:00,74.5,71.6,30.06,SE,135,3.6,6.0,91,0.00,,,0.00,Graphweather,2014-02-16 06:33:00,
2014-02-16 02:38:00,74.7,71.6,30.06,ENE,67,2.7,6.9,92,0.00,,,0.00,Graphweather,2014-02-16 06:38:00,
2014-02-16 02:43:00,74.7,71.6,30.06,East,90,4.5,9.8,92,0.00,,,0.00,Graphweather,2014-02-16 06:43:00,
2014-02-16 02:53:00,74.7,71.6,30.06,ESE,112,3.6,7.4,92,0.00,,,0.00,Graphweather,2014-02-16 06:53:00,
2014-02-16 02:58:00,74.7,71.6,30.06,SE,135,3.6,8.1,92,0.00,,,0.00,Graphweather,2014-02-16 06:58:00,
2014-02-16 03:07:00,74.5,71.6,30.06,East,90,3.8,8.7,91,0.00,,,0.00,Graphweather,2014-02-16 07:07:00,
2014-02-16 03:13:00,74.5,71.6,30.06,ENE,67,3.6,8.1,91,0.00,,,0.00,Graphweather,2014-02-16 07:13:00,
2014-02-16 03:18:00,74.3,71.6,30.03,East,90,3.1,5.4,91,0.00,,,0.00,Graphweather,2014-02-16 07:18:00,
2014-02-16 03:23:00,74.3,71.6,30.03,ESE,112,3.4,7.4,91,0.00,,,0.00,Graphweather,2014-02-16 07:23:00,
2014-02-16 03:33:00,74.3,71.6,30.03,ESE,112,2.9,7.6,91,0.00,,,0.00,Graphweather,2014-02-16 07:33:00,
2014-02-16 03:38:00,74.1,71.6,30.03,East,90,2.5,6.7,91,0.00,,,0.00,Graphweather,2014-02-16 07:38:00,
2014-02-16 03:43:00,74.1,71.6,30.03,East,90,3.1,4.5,91,0.00,,,0.00,Graphweather,2014-02-16 07:43:00,
2014-02-16 03:53:00,73.9,71.6,30.03,SE,135,2.7,8.5,92,0.00,,,0.00,Graphweather,2014-02-16 07:53:00,
2014-02-16 03:58:00,73.9,71.6,30.03,East,90,3.4,6.0,92,0.00,,,0.00,Graphweather,2014-02-16 07:58:00,
2014-02-16 04:03:00,74.1,71.6,30.03,ESE,112,3.8,5.8,91,0.00,,,0.00,Graphweather,2014-02-16 08:03:00,
2014-02-16 04:13:00,74.1,71.6,30.03,SE,135,2.9,4.9,91,0.00,,,0.00,Graphweather,2014-02-16 08:13:00,
2014-02-16 04:18:00,73.9,71.6,30.03,SE,135,3.4,4.7,91,0.00,,,0.00,Graphweather,2014-02-16 08:18:00,
2014-02-16 04:23:00,73.9,71.6,30.03,SE,135,3.6,6.3,91,0.00,,,0.00,Graphweather,2014-02-16 08:23:00,
2014-02-16 04:33:00,74.1,71.6,30.03,South,180,3.4,5.8,91,0.00,,,0.00,Graphweather,2014-02-16 08:33:00,
2014-02-16 04:38:00,74.3,71.6,30.03,ESE,112,3.4,5.6,92,0.00,,,0.00,Graphweather,2014-02-16 08:38:00,
2014-02-16 04:43:00,74.5,71.6,30.03,East,90,3.4,6.0,92,0.00,,,0.00,Graphweather,2014-02-16 08:43:00,
2014-02-16 04:53:00,74.3,71.6,30.06,SW,225,3.8,5.6,90,0.00,,,0.00,Graphweather,2014-02-16 08:53:00,
2014-02-16 04:58:00,74.1,71.6,30.06,NNE,22,2.9,6.3,91,0.00,,,0.00,Graphweather,2014-02-16 08:58:00,
2014-02-16 05:03:00,74.1,71.6,30.03,ESE,112,2.7,5.4,91,0.00,,,0.00,Graphweather,2014-02-16 09:03:00,
2014-02-16 05:08:00,73.9,71.6,30.03,ENE,67,3.1,5.8,90,0.00,,,0.00,Graphweather,2014-02-16 09:08:00,
2014-02-16 05:18:00,73.9,71.6,30.06,ESE,112,2.7,5.4,92,0.00,,,0.00,Graphweather,2014-02-16 09:18:00,
2014-02-16 05:23:00,73.9,71.6,30.06,NE,45,2.9,5.6,91,0.00,,,0.00,Graphweather,2014-02-16 09:23:00,
2014-02-16 05:33:00,73.9,71.6,30.06,East,90,3.4,5.8,91,0.00,,,0.00,Graphweather,2014-02-16 09:33:00,
2014-02-16 05:38:00,73.8,71.6,30.06,East,90,2.9,4.9,91,0.00,,,0.00,Graphweather,2014-02-16 09:38:00,
2014-02-16 05:43:00,73.8,71.6,30.06,East,90,3.1,4.3,91,0.00,,,0.00,Graphweather,2014-02-16 09:43:00,
2014-02-16 05:48:00,73.8,71.6,30.06,SE,135,2.9,4.0,91,0.00,,,0.00,Graphweather,2014-02-16 09:48:00,
2014-02-16 05:58:00,73.9,71.6,30.06,East,90,3.1,6.3,93,0.00,,,0.00,Graphweather,2014-02-16 09:58:00,
2014-02-16 06:07:00,73.9,71.6,30.06,NNE,22,2.0,4.0,93,0.00,,,0.00,Graphweather,2014-02-16 10:07:00,
2014-02-16 06:13:00,73.9,71.6,30.06,East,90,3.1,7.2,93,0.00,,,0.00,Graphweather,2014-02-16 10:13:00,
2014-02-16 06:18:00,73.9,71.6,30.06,SSW,202,3.1,6.3,92,0.00,,,0.00,Graphweather,2014-02-16 10:18:00,
2014-02-16 06:23:00,73.9,71.6,30.06,SE,135,3.1,4.0,91,0.00,,,0.00,Graphweather,2014-02-16 10:23:00,
2014-02-16 06:33:00,73.8,71.6,30.06,East,90,2.9,4.0,91,0.00,,,0.00,Graphweather,2014-02-16 10:33:00,
2014-02-16 06:38:00,73.9,71.6,30.06,East,90,2.2,4.7,92,0.00,,,0.00,Graphweather,2014-02-16 10:38:00,
2014-02-16 06:43:00,73.9,71.6,30.06,North,0,2.0,5.8,92,0.00,,,0.00,Graphweather,2014-02-16 10:43:00,
2014-02-16 06:53:00,74.1,71.6,30.06,East,90,3.1,4.3,92,0.00,,,0.00,Graphweather,2014-02-16 10:53:00,
2014-02-16 06:58:00,74.1,71.6,30.06,East,90,2.2,5.8,92,0.00,,,0.00,Graphweather,2014-02-16 10:58:00,
2014-02-16 07:03:00,74.3,71.6,30.06,SSW,202,4.7,7.6,92,0.00,,,0.00,Graphweather,2014-02-16 11:03:00,
2014-02-16 07:13:00,74.7,71.6,30.06,ESE,112,2.5,5.8,92,0.00,,,0.00,Graphweather,2014-02-16 11:13:00,
2014-02-16 07:18:00,74.7,71.6,30.06,SE,135,4.0,7.2,91,0.00,,,0.00,Graphweather,2014-02-16 11:18:00,
2014-02-16 07:23:00,74.8,71.6,30.06,SE,135,3.4,6.5,90,0.00,,,0.00,Graphweather,2014-02-16 11:23:00,
2014-02-16 07:33:00,75.9,73.4,30.09,SW,225,2.9,5.8,89,0.00,,,0.00,Graphweather,2014-02-16 11:33:00,
2014-02-16 07:38:00,76.8,73.4,30.09,East,90,2.2,5.8,88,0.00,,,0.00,Graphweather,2014-02-16 11:38:00,
2014-02-16 07:43:00,77.5,73.4,30.09,South,180,2.0,3.4,87,0.00,,,0.00,Graphweather,2014-02-16 11:43:00,
2014-02-16 07:52:00,79.5,73.4,30.09,East,90,3.6,6.9,83,0.00,,,0.00,Graphweather,2014-02-16 11:52:00,
2014-02-16 07:58:00,80.1,73.4,30.09,East,90,5.4,6.0,80,0.00,,,0.00,Graphweather,2014-02-16 11:58:00,
2014-02-16 08:03:00,80.4,75.2,30.09,SSE,157,4.0,6.3,80,0.00,,,0.00,Graphweather,2014-02-16 12:03:00,
2014-02-16 08:13:00,80.6,73.4,30.09,NNE,22,3.6,6.3,78,0.00,,,0.00,Graphweather,2014-02-16 12:13:00,
2014-02-16 08:18:00,81.5,75.2,30.09,NNE,22,2.2,5.8,77,0.00,,,0.00,Graphweather,2014-02-16 12:18:00,
2014-02-16 08:23:00,82.0,73.4,30.09,East,90,2.5,4.9,75,0.00,,,0.00,Graphweather,2014-02-16 12:23:00,
2014-02-16 08:33:00,82.6,73.4,30.09,ESE,112,2.5,6.5,74,0.00,,,0.00,Graphweather,2014-02-16 12:33:00,
2014-02-16 08:38:00,81.7,73.4,30.09,East,90,3.4,5.6,73,0.00,,,0.00,Graphweather,2014-02-16 12:38:00,
2014-02-16 08:47:00,80.2,71.6,30.09,SE,135,3.4,6.3,76,0.00,,,0.00,Graphweather,2014-02-16 12:47:00,
2014-02-16 08:53:00,80.6,73.4,30.09,ESE,112,2.5,6.0,76,0.00,,,0.00,Graphweather,2014-02-16 12:53:00,
2014-02-16 08:58:00,82.2,75.2,30.09,ESE,112,2.5,7.2,75,0.00,,,0.00,Graphweather,2014-02-16 12:58:00,
2014-02-16 09:07:00,80.6,73.4,30.09,North,0,4.0,6.0,75,0.00,,,0.00,Graphweather,2014-02-16 13:07:00,
2014-02-16 09:13:00,80.8,71.6,30.09,South,180,3.8,7.4,74,0.00,,,0.00,Graphweather,2014-02-16 13:13:00,
2014-02-16 09:52:00,84.6,73.4,30.12,SE,135,2.9,8.7,67,0.00,,,0.00,Graphweather,2014-02-16 13:52:00,
2014-02-16 09:58:00,85.5,73.4,30.12,ESE,112,2.5,4.9,67,0.00,,,0.00,Graphweather,2014-02-16 13:58:00,
2014-02-16 10:35:00,86.9,71.6,30.12,NW,315,3.1,6.0,58,0.00,,,0.00,Graphweather,2014-02-16 14:35:00,
2014-02-16 10:43:00,89.2,71.6,30.12,ESE,112,3.4,5.6,56,0.00,,,0.00,Graphweather,2014-02-16 14:43:00,
2014-02-16 10:48:00,89.1,71.6,30.12,ESE,112,3.4,5.6,55,0.00,,,0.00,Graphweather,2014-02-16 14:48:00,
2014-02-16 10:58:00,89.8,73.4,30.12,East,90,3.1,8.1,57,0.00,,,0.00,Graphweather,2014-02-16 14:58:00,
2014-02-16 11:37:00,89.2,73.4,30.09,ESE,112,4.0,6.5,61,0.00,,,0.00,Graphweather,2014-02-16 15:37:00,
2014-02-16 11:42:00,90.3,75.2,30.09,East,90,3.1,6.0,59,0.00,,,0.00,Graphweather,2014-02-16 15:42:00,
2014-02-16 11:48:00,88.5,73.4,30.06,ESE,112,2.9,9.4,60,0.00,,,0.00,Graphweather,2014-02-16 15:48:00,
2014-02-16 11:53:00,89.2,73.4,30.06,ESE,112,4.5,7.8,60,0.00,,,0.00,Graphweather,2014-02-16 15:53:00,
2014-02-16 12:02:00,88.9,71.6,30.06,ESE,112,3.8,7.4,57,0.00,,,0.00,Graphweather,2014-02-16 16:02:00,
2014-02-16 12:07:00,88.7,73.4,30.09,East,90,4.7,10.5,58,0.00,,,0.00,Graphweather,2014-02-16 16:07:00,
2014-02-16 12:13:00,88.5,73.4,30.09,East,90,2.7,8.5,59,0.00,,,0.00,Graphweather,2014-02-16 16:13:00,
2014-02-16 12:18:00,88.9,73.4,30.09,SE,135,5.6,10.1,59,0.00,,,0.00,Graphweather,2014-02-16 16:18:00,
2014-02-16 12:28:00,88.3,75.2,30.09,NE,45,4.3,8.7,65,0.00,,,0.00,Graphweather,2014-02-16 16:28:00,
2014-02-16 12:33:00,88.2,75.2,30.09,SSW,202,3.8,6.3,65,0.00,,,0.00,Graphweather,2014-02-16 16:33:00,
2014-02-16 12:43:00,89.8,75.2,30.09,ESE,112,3.8,6.5,60,0.00,,,0.00,Graphweather,2014-02-16 16:43:00,
2014-02-16 13:27:00,90.3,71.6,30.06,SSE,157,3.4,7.2,55,0.00,,,0.00,Graphweather,2014-02-16 17:27:00,
2014-02-16 13:33:00,89.6,71.6,30.03,ESE,112,2.7,5.4,55,0.00,,,0.00,Graphweather,2014-02-16 17:33:00,
2014-02-16 13:38:00,87.6,75.2,30.03,East,90,4.9,8.1,64,0.00,,,0.00,Graphweather,2014-02-16 17:38:00,
2014-02-16 13:48:00,87.3,75.2,30.03,ENE,67,3.6,8.1,65,0.00,,,0.00,Graphweather,2014-02-16 17:48:00,
2014-02-16 13:53:00,87.1,75.2,30.03,East,90,3.8,6.5,66,0.00,,,0.00,Graphweather,2014-02-16 17:53:00,
2014-02-16 14:02:00,87.3,75.2,30.00,SE,135,4.5,6.5,66,0.00,,,0.00,Graphweather,2014-02-16 18:02:00,
2014-02-16 14:08:00,85.6,73.4,30.00,NNE,22,4.5,9.8,67,0.00,,,0.00,Graphweather,2014-02-16 18:08:00,
2014-02-16 14:13:00,80.6,73.4,30.00,East,90,3.4,7.6,77,0.00,,,0.00,Graphweather,2014-02-16 18:13:00,
2014-02-16 14:57:00,83.3,73.4,30.03,ESE,112,2.0,3.6,71,0.00,,,0.00,Graphweather,2014-02-16 18:57:00,
2014-02-16 15:02:00,83.7,75.2,30.03,East,90,2.5,3.1,72,0.00,,,0.00,Graphweather,2014-02-16 19:02:00,
2014-02-16 15:42:00,84.7,75.2,30.06,East,90,1.3,5.6,71,0.00,,,0.00,Graphweather,2014-02-16 19:42:00,
2014-02-16 15:49:00,86.0,75.2,30.03,East,90,1.3,5.8,69,0.00,,,0.00,Graphweather,2014-02-16 19:49:00,
2014-02-16 15:58:00,86.4,75.2,30.03,ESE,112,1.3,3.6,67,0.00,,,0.00,Graphweather,2014-02-16 19:58:00,
2014-02-16 16:03:00,86.0,73.4,30.06,ENE,67,2.5,7.8,67,0.00,,,0.00,Graphweather,2014-02-16 20:03:00,
2014-02-16 16:13:00,79.2,73.4,30.06,NNE,22,4.9,7.4,79,0.00,,,0.00,Graphweather,2014-02-16 20:13:00,
2014-02-16 16:54:00,75.0,73.4,30.03,East,90,0.0,2.2,92,0.00,,,0.00,Graphweather,2014-02-16 20:54:00,
2014-02-16 17:03:00,75.4,73.4,30.06,ESE,112,1.6,3.8,91,0.00,,,0.00,Graphweather,2014-02-16 21:03:00,
2014-02-16 17:08:00,75.4,71.6,30.06,East,90,2.0,3.8,90,0.00,,,0.00,Graphweather,2014-02-16 21:08:00,
2014-02-16 17:13:00,75.4,71.6,30.06,ESE,112,2.2,3.8,89,0.00,,,0.00,Graphweather,2014-02-16 21:13:00,
2014-02-16 17:54:00,75.7,68.0,30.00,East,90,3.8,7.8,78,0.00,,,0.00,Graphweather,2014-02-16 21:54:00,
2014-02-16 18:02:00,75.9,68.0,30.00,East,90,3.6,8.1,78,0.00,,,0.00,Graphweather,2014-02-16 22:02:00,
2014-02-16 18:08:00,75.7,69.8,30.00,East,90,4.9,6.9,80,0.00,,,0.00,Graphweather,2014-02-16 22:08:00,
2014-02-16 18:13:00,75.7,69.8,30.00,East,90,2.9,6.3,80,0.00,,,0.00,Graphweather,2014-02-16 22:13:00,
2014-02-16 18:18:00,75.7,69.8,30.03,SW,225,3.8,7.4,80,0.00,,,0.00,Graphweather,2014-02-16 22:18:00,
2014-02-16 18:28:00,75.7,69.8,30.03,East,90,2.7,6.3,80,0.00,,,0.00,Graphweather,2014-02-16 22:28:00,
2014-02-16 18:33:00,75.6,69.8,30.03,NE,45,4.0,6.0,80,0.00,,,0.00,Graphweather,2014-02-16 22:33:00,
2014-02-16 18:43:00,75.6,69.8,30.03,SW,225,4.5,11.0,81,0.00,,,0.00,Graphweather,2014-02-16 22:43:00,
2014-02-16 18:48:00,75.6,69.8,30.03,East,90,1.6,5.4,82,0.00,,,0.00,Graphweather,2014-02-16 22:48:00,
2014-02-16 21:02:00,74.5,71.6,30.06,East,90,1.6,5.6,90,0.00,,,0.00,Graphweather,2014-02-17 01:02:00,
2014-02-16 21:39:00,75.0,71.6,30.09,SSE,157,3.6,5.6,85,0.00,,,0.00,Graphweather,2014-02-17 01:39:00,
2014-02-16 22:22:00,74.7,71.6,30.09,ESE,112,3.4,6.7,87,0.00,,,0.00,Graphweather,2014-02-17 02:22:00,
2014-02-16 22:27:00,74.5,71.6,30.09,South,180,2.7,7.2,87,0.00,,,0.00,Graphweather,2014-02-17 02:27:00,
2014-02-16 23:06:00,74.3,69.8,30.09,SSW,202,3.4,7.2,86,0.00,,,0.00,Graphweather,2014-02-17 03:06:00,
2014-02-16 23:13:00,74.1,69.8,30.09,SE,135,2.9,5.8,87,0.00,,,0.00,Graphweather,2014-02-17 03:13:00,
2014-02-16 23:18:00,74.1,69.8,30.09,East,90,2.9,4.9,86,0.00,,,0.00,Graphweather,2014-02-17 03:18:00,
2014-02-16 23:23:00,73.9,69.8,30.09,SE,135,2.9,6.3,85,0.00,,,0.00,Graphweather,2014-02-17 03:23:00,
2014-02-16 23:33:00,73.9,69.8,30.06,East,90,1.1,2.9,87,0.00,,,0.00,Graphweather,2014-02-17 03:33:00,
2014-02-16 23:38:00,73.9,69.8,30.06,SE,135,2.2,4.3,88,0.00,,,0.00,Graphweather,2014-02-17 03:38:00,
2014-02-16 23:48:00,74.1,71.6,30.06,SSW,202,2.5,6.0,89,0.00,,,0.00,Graphweather,2014-02-17 03:48:00,